Melton Hill Observed Data For Previous 48 Hours

Caption
Day and Hour Reservoir Elevation (behind dam)* Tailwater Elevation (below dam)* Average Hourly Discharge*
3/22/2019 2 AM EDT 792.77 741.26 17,051
3/22/2019 3 AM EDT 792.75 741.28 17,044
3/22/2019 4 AM EDT 792.73 741.29 17,007
3/22/2019 5 AM EDT 792.72 741.30 17,021
3/22/2019 6 AM EDT 792.71 741.29 16,942
3/22/2019 7 AM EDT 792.70 741.29 16,990
3/22/2019 8 AM EDT 792.67 741.31 16,960
3/22/2019 9 AM EDT 792.66 741.32 16,925
3/22/2019 10 AM EDT 792.64 741.34 16,882
3/22/2019 11 AM EDT 792.61 741.34 16,878
3/22/2019 12 PM EDT 792.59 741.34 16,920
3/22/2019 1 PM EDT 792.58 741.38 16,956
3/22/2019 2 PM EDT 792.55 741.39 16,994
3/22/2019 3 PM EDT 792.54 741.41 16,943
3/22/2019 4 PM EDT 792.52 741.46 16,952
3/22/2019 5 PM EDT 792.51 741.48 16,979
3/22/2019 6 PM EDT 792.49 741.47 16,944
3/22/2019 7 PM EDT 792.48 741.48 16,936
3/22/2019 8 PM EDT 792.48 741.49 16,918
3/22/2019 9 PM EDT 792.46 741.48 16,889
3/22/2019 10 PM EDT 792.46 741.47 16,891
3/22/2019 11 PM EDT 792.45 741.46 16,939
3/23/2019 12 AM EDT 792.43 741.46 16,981
3/23/2019 1 AM EDT 792.41 741.48 16,933
3/23/2019 2 AM EDT 792.39 741.47 16,948
3/23/2019 3 AM EDT 792.38 741.47 16,963
3/23/2019 4 AM EDT 792.36 741.47 16,955
3/23/2019 5 AM EDT 792.35 741.48 16,963
3/23/2019 6 AM EDT 792.32 741.48 16,953
3/23/2019 7 AM EDT 792.31 741.48 16,961
3/23/2019 8 AM EDT 792.29 741.49 16,963
3/23/2019 9 AM EDT 792.27 741.50 16,954
3/23/2019 10 AM EDT 792.26 741.50 16,928
3/23/2019 11 AM EDT 792.24 741.52 16,927
3/23/2019 12 PM EDT 792.23 741.51 16,941
3/23/2019 1 PM EDT 792.21 741.50 16,940
3/23/2019 2 PM EDT 792.19 741.51 16,948
3/23/2019 3 PM EDT 792.18 741.50 16,913
3/23/2019 4 PM EDT 792.15 741.52 16,933
3/23/2019 5 PM EDT 792.13 741.50 16,945
3/23/2019 6 PM EDT 792.12 741.52 16,923
3/23/2019 7 PM EDT 792.10 741.53 16,910
3/23/2019 8 PM EDT 792.08 741.53 16,901
3/23/2019 9 PM EDT 792.07 741.52 16,861
3/23/2019 10 PM EDT 792.05 741.53 16,871
3/23/2019 11 PM EDT 792.03 741.55 16,894
3/24/2019 12 AM EDT 792.01 741.54 16,904
3/24/2019 1 AM EDT 792.00 741.56 16,877

Elevations are in feet above sea level. Discharges are in cubic feet per second and are reported at the end of the hour.